Weather History for KELY - February, 2013

Change the Weather History Date:

Saturday, February 23, 2013

  Actual Average Record
Temperature  
Mean Temperature 26 °F 31 °F  
Max Temperature 33 °F 44 °F 61 °F (1995)
Min Temperature 19 °F 18 °F -7 °F (1994)
Degree Days  
Heating Degree Days 39 34  
Month to date heating degree days 900 842  
Since 1 July heating degree days 5015 5171  
Cooling Degree Days 0 0  
Month to date cooling degree days 0 0  
Year to date cooling degree days 0 0  
Moisture  
Dew Point 15 °F    
Average Humidity 62    
Maximum Humidity 81    
Minimum Humidity 42    
Precipitation  
Precipitation T in 0.03 in 0.69 in (1998)
Month to date precipitation 0.62 0.60  
Year to date precipitation 1.42 1.30  
Snow  
Snow 0.60 in 0.30 in 10.00 in (1956)
Month to date snowfall 9.9 6.6  
Since 1 July snowfall 55.3 33.6  
Snow Depth 2.00 in    
Sea Level Pressure  
Sea Level Pressure 29.96 in    
Wind  
Wind Speed 14 mph (WNW)    
Max Wind Speed 38 mph    
Max Gust Speed 46 mph    
Visibility 8 miles    
Events Fog , Snow    
T = Trace of Precipitation, MM = Missing Value Source: NWS Daily Summary

Daily Weather History Graph

Daily Weather History Graph

Search for Another Location

Airport or City:

Trip Planner

Search our weather history database for the weather conditions in past years. The results will help you decide how hot, cold, wet, or windy it might be!

Date:

Astronomy

Feb. 23, 2013 Rise Set
Actual Time 6:20 AM PST 5:25 PM PST
Civil Twilight 5:53 AM PST 5:52 PM PST
Nautical Twilight 5:22 AM PST 6:23 PM PST
Astronomical Twilight 4:51 AM PST 6:54 PM PST
Moon 3:40 PM PST (2/23) 4:44 AM PST (2/23)
Length of Visible Light 11h 59m
Length of Day
11h 05m
Waxing Gibbous, 96% of the Moon is Illuminated
Feb 23
Waxing Gibbous
Feb 25
Full
Mar 4
Last Quarter
Mar 11
New
Mar 19
First Quarter

Hourly Weather History & Observations

Time (PST) Temp. Windchill Dew Point Humidity Pressure Visibility Wind Dir Wind Speed Gust Speed Precip Events Conditions
12:53 AM 25.0 °F 16.3 °F 19.0 °F 78% 30.00 in 10.0 mi SSW 8.1 mph - N/A   Overcast
1:53 AM 30.0 °F 21.1 °F 18.0 °F 61% 29.95 in 10.0 mi SW 10.4 mph - N/A   Overcast
2:53 AM 28.9 °F 19.8 °F 19.0 °F 67% 29.90 in 10.0 mi SW 10.4 mph - N/A   Overcast
3:53 AM 30.0 °F 23.2 °F 18.0 °F 61% 29.86 in 10.0 mi WSW 6.9 mph - N/A   Overcast
4:53 AM 28.9 °F 18.2 °F 18.0 °F 64% 29.79 in 10.0 mi South 13.8 mph 24.2 mph N/A   Clear
5:53 AM 30.9 °F 19.1 °F 17.1 °F 57% 29.75 in 10.0 mi SSE 18.4 mph - N/A   Clear
6:53 AM 33.1 °F 20.1 °F 19.0 °F 56% 29.80 in 5.0 mi SW 25.3 mph 46.0 mph 0.00 in Snow Light Snow
6:57 AM 32.0 °F 20.1 °F 19.4 °F 60% 29.82 in 2.0 mi WSW 19.6 mph 41.4 mph 0.00 in Snow Light Snow
7:01 AM 30.2 °F 19.8 °F 19.4 °F 64% 29.84 in 1.2 mi WSW 13.8 mph 31.1 mph 0.00 in Snow Light Snow
7:09 AM 26.6 °F 12.4 °F 21.2 °F 80% 29.87 in 0.5 mi WNW 21.9 mph 28.8 mph 0.00 in Snow Snow
7:12 AM 26.6 °F 13.4 °F 21.2 °F 80% 29.87 in 0.2 mi WNW 18.4 mph 28.8 mph 0.00 in Fog , Snow Heavy Snow
7:23 AM 24.8 °F 9.3 °F 21.2 °F 86% 29.88 in 1.0 mi NW 24.2 mph 33.4 mph 0.00 in Snow Light Snow
7:29 AM 24.8 °F 10.7 °F 19.4 °F 80% 29.89 in 1.5 mi NW 19.6 mph 35.7 mph 0.00 in Snow Light Snow
7:36 AM 24.8 °F 10.7 °F 19.4 °F 80% 29.90 in 3.0 mi NW 19.6 mph 25.3 mph 0.00 in Snow Light Snow
7:53 AM 25.0 °F 13.1 °F 18.0 °F 75% 29.98 in 10.0 mi NNW 13.8 mph 21.9 mph 0.00 in   Overcast
8:33 AM 24.8 °F 12.9 °F 15.8 °F 69% 29.92 in 8.0 mi NNW 13.8 mph 20.7 mph 0.00 in Snow Light Snow
8:43 AM 24.8 °F 12.9 °F 15.8 °F 69% 29.92 in 10.0 mi NW 13.8 mph - 0.00 in   Overcast
8:53 AM 25.0 °F 12.6 °F 12.9 °F 60% 29.97 in 10.0 mi NW 15.0 mph - 0.00 in   Overcast
9:53 AM 26.1 °F 12.7 °F 10.9 °F 53% 29.98 in 10.0 mi NW 18.4 mph - N/A   Partly Cloudy
10:53 AM 27.0 °F 13.5 °F 9.0 °F 47% 30.01 in 10.0 mi NW 19.6 mph 25.3 mph N/A   Scattered Clouds
11:53 AM 27.0 °F 14.3 °F 8.1 °F 45% 29.99 in 10.0 mi NW 17.3 mph 27.6 mph N/A   Clear
12:53 PM 26.1 °F 12.7 °F 7.0 °F 44% 29.98 in 10.0 mi NW 18.4 mph 32.2 mph N/A   Mostly Cloudy
1:53 PM 27.0 °F 14.7 °F 9.0 °F 47% 29.96 in 10.0 mi NW 16.1 mph 25.3 mph 0.01 in   Partly Cloudy
2:53 PM 25.0 °F 10.6 °F 10.0 °F 53% 30.00 in 10.0 mi NW 20.7 mph 26.5 mph N/A   Scattered Clouds
3:53 PM 23.0 °F 10.1 °F 10.0 °F 58% 30.01 in 10.0 mi NW 15.0 mph 23.0 mph N/A   Scattered Clouds
4:53 PM 23.0 °F 11.1 °F 10.0 °F 58% 30.04 in 10.0 mi NW 12.7 mph 21.9 mph N/A   Overcast
5:53 PM 21.0 °F 5.7 °F 10.9 °F 65% 30.05 in 10.0 mi NW 19.6 mph 24.2 mph N/A   Overcast
6:53 PM 21.0 °F 11.4 °F 10.9 °F 65% 30.07 in 10.0 mi WNW 8.1 mph - N/A   Overcast
7:53 PM 21.0 °F 10.6 °F 12.0 °F 68% 30.12 in 10.0 mi North 9.2 mph - N/A   Overcast
8:53 PM 21.0 °F 8.6 °F 14.0 °F 74% 30.12 in 9.0 mi WNW 12.7 mph - 0.00 in Snow Light Snow
9:53 PM 21.0 °F 12.4 °F 12.9 °F 71% 30.11 in 10.0 mi NNW 6.9 mph - 0.00 in   Overcast
10:53 PM 21.0 °F 14.6 °F 12.9 °F 71% 30.10 in 10.0 mi North 4.6 mph - 0.00 in   Overcast
11:19 PM 21.2 °F 9.5 °F 12.2 °F 68% 30.03 in 10.0 mi North 11.5 mph - N/A   Overcast
11:35 PM 19.4 °F 6.6 °F 12.2 °F 74% 30.03 in 10.0 mi NW 12.7 mph - N/A   Overcast
11:53 PM 19.0 °F 5.0 °F 14.0 °F 81% 30.12 in 10.0 mi NW 15.0 mph 21.9 mph N/A   Overcast